Find Starlink 36279

NORAD ID: 67193 Int'l Des: 2025-304 Owner: SPXS Country: US Constellation: starlink operational
LEOCIRCULAR

Live-Position

3D-Globus wird geladen...

Über Starlink 36279

Beschreibung wird geladen...

Nächste Überflüge

Passes for default location (London). Set your location on the main map for personalized predictions.

Höhenverlauf

Loading altitude history...

Zweizeiliger Elementsatz

1 67193U 25304B 26119.21648641 .00005318 00000-0 45307-3 0 9990
2 67193 70.0028 47.0383 0002597 265.5771 94.5091 14.98336920 21451
Epoch: 29. Apr. 2026 • Age: 14 hours

Aktueller Status

Höhe 593.9 km
Geschwindigkeit 7.56 km/s
Subsatellitenpunkt -63.26°S, 126.74°E
Startdatum 17. Dez. 2025
Alter 0.3 years
Typ internet

Technische Details

Klassifizierung Payload
Masse 575.00 kg
Trockenmasse 530.00 kg
Gesamtmasse 575.00 kg
Länge 0.30 m
Durchmesser 4.10 m
Spannweite 29.00 m
Form Box + pan
Hersteller SPXS
Bus-Typ Starlink V2MO
Phasenstatus In Orbit
Besitzer/Staat SPXS/US

Most Searched